• In Hungary
  • List of Countries
  • For 7 days
  • Water Temperature
  • Satellite Maps
  • Weather Map
  • News
  • Weather Widgets
  • user-avatar
    Login

    Hourly Weather Strzelczyki

    Today, 24 November, Friday

    Time Temperature Precipitation Wind Pressure Humidity
    00:00 +6°C° 0 mm 4 mps 753 mmHg 82%
    01:00 +7°C° 0 mm 2 mps 753 mmHg 88%
    02:00 +7°C° 0 mm 3 mps 753 mmHg 90%
    03:00 +5°C° 0 mm 3 mps 753 mmHg 91%
    04:00 +5°C° 0 mm 3 mps 754 mmHg 92%
    05:00 +5°C° 0 mm 3 mps 754 mmHg 92%
    06:00 +5°C° 0 mm 3 mps 754 mmHg 93%
    07:00 +6°C° 0 mm 2 mps 754 mmHg 94%
    08:00 +5°C° 0 mm 3 mps 753 mmHg 91%
    09:00 +6°C° 0 mm 4 mps 753 mmHg 88%
    10:00 +7°C° 0 mm 4 mps 753 mmHg 85%
    11:00 +8°C° 0 mm 5 mps 753 mmHg 81%
    12:00 +9°C° 0 mm 5 mps 752 mmHg 77%
    13:00 +10°C° 0 mm 6 mps 752 mmHg 72%
    14:00 +10°C° 0 mm 5 mps 752 mmHg 74%
    15:00 +10°C° 0 mm 5 mps 752 mmHg 76%
    16:00 +10°C° 0 mm 5 mps 751 mmHg 77%
    17:00 +9°C° 0.3 mm 5 mps 752 mmHg 79%
    18:00 +9°C° 0.3 mm 5 mps 752 mmHg 81%
    19:00 +9°C° 0.3 mm 5 mps 752 mmHg 82%
    20:00 +9°C° 0.2 mm 5 mps 753 mmHg 84%
    21:00 +8°C° 0.2 mm 4 mps 753 mmHg 86%
    22:00 +9°C° 0.2 mm 3 mps 753 mmHg 88%
    23:00 +8°C° 0 mm 3 mps 754 mmHg 89%

    Tomorrow, 25 November, Saturday

    Time Temperature Precipitation Wind Pressure Humidity
    00:00 +7°C° 0 mm 2 mps 754 mmHg 90%
    01:00 +7°C° 0 mm 1 mps 754 mmHg 91%
    02:00 +7°C° 0.1 mm 1 mps 754 mmHg 91%
    03:00 +7°C° 0.1 mm 1 mps 754 mmHg 91%
    04:00 +6°C° 0.1 mm 0 mps 754 mmHg 91%
    05:00 +7°C° 0.5 mm 1 mps 754 mmHg 92%
    06:00 +7°C° 0.5 mm 1 mps 753 mmHg 92%
    07:00 +6°C° 0.5 mm 2 mps 753 mmHg 93%
    08:00 +6°C° 1 mm 2 mps 752 mmHg 92%
    09:00 +5°C° 1 mm 3 mps 751 mmHg 92%
    10:00 +5°C° 1 mm 3 mps 750 mmHg 91%
    11:00 +7°C° 0.8 mm 3 mps 750 mmHg 89%
    12:00 +7°C° 0.8 mm 3 mps 749 mmHg 86%
    13:00 +7°C° 0.8 mm 4 mps 748 mmHg 84%
    14:00 +7°C° 0.8 mm 4 mps 748 mmHg 85%
    15:00 +7°C° 0.8 mm 4 mps 748 mmHg 86%
    16:00 +7°C° 0.8 mm 4 mps 747 mmHg 87%
    17:00 +6°C° 0.2 mm 5 mps 748 mmHg 87%
    18:00 +6°C° 0.2 mm 5 mps 748 mmHg 87%
    19:00 +5°C° 0.2 mm 5 mps 748 mmHg 87%
    20:00 +4°C° 0 mm 6 mps 749 mmHg 85%
    21:00 +4°C° 0 mm 6 mps 750 mmHg 82%
    22:00 +3°C° 0 mm 6 mps 751 mmHg 80%
    23:00 +3°C° 0 mm 5 mps 752 mmHg 80%

    Day after tomorrow, 26 November, Sunday

    Time Temperature Precipitation Wind Pressure Humidity
    00:00 +2°C° 0 mm 5 mps 753 mmHg 81%
    01:00 +3°C° 0 mm 4 mps 754 mmHg 81%
    02:00 +1°C° 0 mm 4 mps 754 mmHg 85%
    03:00 +2°C° 0 mm 3 mps 755 mmHg 88%
    04:00 +1°C° 0 mm 3 mps 755 mmHg 91%
    05:00 +1°C° 0 mm 3 mps 756 mmHg 92%
    06:00 0°C° 0 mm 4 mps 756 mmHg 93%
    07:00 0°C° 0 mm 4 mps 756 mmHg 93%
    08:00 0°C° 0 mm 4 mps 757 mmHg 90%
    09:00 +1°C° 0 mm 4 mps 757 mmHg 87%
    10:00 +1°C° 0 mm 5 mps 758 mmHg 83%
    11:00 +2°C° 0 mm 5 mps 758 mmHg 79%
    12:00 +2°C° 0 mm 5 mps 758 mmHg 75%
    13:00 +3°C° 0 mm 5 mps 758 mmHg 72%
    14:00 +3°C° 0 mm 4 mps 758 mmHg 74%
    15:00 +3°C° 0 mm 4 mps 758 mmHg 77%
    16:00 +1°C° 0 mm 4 mps 758 mmHg 80%
    17:00 +1°C° 0 mm 4 mps 759 mmHg 81%
    18:00 +1°C° 0 mm 4 mps 759 mmHg 83%
    19:00 0°C° 0 mm 4 mps 759 mmHg 84%
    20:00 0°C° 0 mm 4 mps 759 mmHg 85%
    21:00 0°C° 0 mm 4 mps 759 mmHg 85%
    22:00 0°C° 0 mm 5 mps 759 mmHg 86%
    23:00 0°C° 0 mm 5 mps 759 mmHg 86%

    27 November, Monday

    Time Temperature Precipitation Wind Pressure Humidity
    00:00 0°C° 0 mm 5 mps 759 mmHg 86%
    01:00 -1°C° 0 mm 5 mps 759 mmHg 86%
    02:00 0°C° 0 mm 5 mps 759 mmHg 86%
    03:00 0°C° 0 mm 5 mps 759 mmHg 86%
    04:00 0°C° 0 mm 5 mps 759 mmHg 86%
    05:00 0°C° 0 mm 5 mps 759 mmHg 86%
    06:00 0°C° 0 mm 5 mps 759 mmHg 87%
    07:00 0°C° 0 mm 5 mps 760 mmHg 87%
    08:00 +1°C° 0.1 mm 5 mps 760 mmHg 86%
    09:00 +1°C° 0.1 mm 5 mps 760 mmHg 85%
    10:00 +1°C° 0.1 mm 5 mps 760 mmHg 84%
    11:00 +1°C° 0.1 mm 5 mps 760 mmHg 83%
    12:00 +2°C° 0.1 mm 5 mps 760 mmHg 82%
    13:00 +2°C° 0.1 mm 5 mps 760 mmHg 81%
    14:00 +2°C° 0 mm 5 mps 760 mmHg 82%
    15:00 +3°C° 0 mm 4 mps 760 mmHg 82%
    16:00 +3°C° 0 mm 4 mps 760 mmHg 82%
    17:00 +1°C° 0 mm 4 mps 760 mmHg 82%
    18:00 +1°C° 0 mm 4 mps 760 mmHg 83%
    19:00 +1°C° 0 mm 4 mps 760 mmHg 83%
    20:00 +1°C° 0 mm 4 mps 759 mmHg 85%
    21:00 0°C° 0 mm 4 mps 759 mmHg 86%
    22:00 0°C° 0 mm 5 mps 759 mmHg 88%
    23:00 0°C° 0 mm 5 mps 758 mmHg 87%

    28 November, Tuesday

    Time Temperature Precipitation Wind Pressure Humidity
    00:00 0°C° 0 mm 5 mps 758 mmHg 86%
    01:00 0°C° 0 mm 5 mps 757 mmHg 85%
    02:00 -1°C° 0.1 mm 6 mps 756 mmHg 84%
    03:00 -1°C° 0.1 mm 6 mps 756 mmHg 83%
    04:00 -1°C° 0.1 mm 6 mps 755 mmHg 83%
    05:00 -1°C° 0.1 mm 6 mps 755 mmHg 82%
    06:00 -1°C° 0.1 mm 6 mps 755 mmHg 82%
    07:00 0°C° 0.1 mm 5 mps 755 mmHg 82%
    08:00 0°C° 0.2 mm 5 mps 754 mmHg 81%
    09:00 +1°C° 0.2 mm 5 mps 754 mmHg 80%
    10:00 +1°C° 0.2 mm 5 mps 754 mmHg 80%
    11:00 +1°C° 0.2 mm 5 mps 754 mmHg 80%
    12:00 +1°C° 0.2 mm 5 mps 753 mmHg 79%
    13:00 +1°C° 0.2 mm 5 mps 753 mmHg 79%
    14:00 +1°C° 0.2 mm 4 mps 753 mmHg 79%
    15:00 +1°C° 0.2 mm 4 mps 752 mmHg 79%
    16:00 +1°C° 0.2 mm 4 mps 752 mmHg 78%
    17:00 +1°C° 0 mm 4 mps 752 mmHg 77%
    18:00 +1°C° 0 mm 4 mps 751 mmHg 76%
    19:00 +1°C° 0 mm 4 mps 751 mmHg 75%
    20:00 0°C° 0 mm 4 mps 751 mmHg 74%
    21:00 0°C° 0 mm 4 mps 751 mmHg 74%
    22:00 0°C° 0 mm 4 mps 750 mmHg 74%
    23:00 0°C° 0 mm 4 mps 750 mmHg 74%

    29 November, Wednesday

    Time Temperature Precipitation Wind Pressure Humidity
    00:00 0°C° 0 mm 4 mps 750 mmHg 75%
    01:00 0°C° 0 mm 4 mps 749 mmHg 75%
    02:00 0°C° 0 mm 4 mps 749 mmHg 75%
    03:00 0°C° 0 mm 4 mps 749 mmHg 75%
    04:00 0°C° 0 mm 4 mps 748 mmHg 75%
    05:00 0°C° 0.1 mm 4 mps 748 mmHg 75%
    06:00 0°C° 0.1 mm 4 mps 748 mmHg 75%
    07:00 0°C° 0.1 mm 4 mps 747 mmHg 76%
    08:00 0°C° 0.1 mm 4 mps 747 mmHg 75%
    09:00 0°C° 0.1 mm 4 mps 747 mmHg 74%
    10:00 +1°C° 0.1 mm 4 mps 747 mmHg 73%
    11:00 +1°C° 0 mm 4 mps 747 mmHg 72%
    12:00 +3°C° 0 mm 4 mps 747 mmHg 70%
    13:00 +3°C° 0 mm 4 mps 746 mmHg 69%
    14:00 +3°C° 0 mm 4 mps 746 mmHg 71%
    15:00 +3°C° 0 mm 4 mps 746 mmHg 73%
    16:00 +3°C° 0 mm 4 mps 746 mmHg 76%
    17:00 +3°C° 0.1 mm 4 mps 746 mmHg 79%
    18:00 +2°C° 0.1 mm 5 mps 746 mmHg 82%
    19:00 +2°C° 0.1 mm 5 mps 746 mmHg 85%
    20:00 +2°C° 0.1 mm 5 mps 747 mmHg 85%
    21:00 +1°C° 0.1 mm 5 mps 747 mmHg 86%
    22:00 +1°C° 0.1 mm 5 mps 747 mmHg 87%
    23:00 +1°C° 0 mm 5 mps 747 mmHg 87%
    Show more